Volver al catálogo

CHINASAT 6D

ActivoComunicacionesGEO
NORAD 52255·PAYLOAD·🇨🇳 China

Lanzado Apr 15, 2022 desde Xichang Satellite Launch Center

Loading…

TLE

ActualizadoSource: Space-Track

Época: Sep 13, 2026, 16:09 UTC

1 52255U 22038A   26256.67323882  .00000000  00000-0  00000+0 0  9993
2 52255   0.0399 210.7942 0002005  16.9206 132.2682  1.00267730 16308

Sigue CHINASAT 6D en tiempo real con AllMySat

Download on the App Store